Quillayute, WA
on Monday, January 28, 2013

Monday
Previous Day Next Day
Daily Summary
 ActualAverageRecord
Temperature
Mean Temperature °F 42°F  
Max Temperature 46°F 48°F 59°F (1998)
Min Temperature 40°F 36°F 11°F (1972)
Degree Days
Heating Degree Days 22 23  
Month to date heating degree days 728 656  
Since 1 July heating degree days 3056 3134  
Cooling Degree Days 0 0  
Month to date cooling degree days 0 0  
Year to date cooling degree days 0 0  
Moisture
Dew Point 40°F   
Average Humidity 83    
Maximum Humidity 89    
Minimum Humidity 76    
Precipitation
Precipitation 0.66 in 0.43 in 1.83 in (2004)
Month to date precipitation 8.58 13.32  
Year to date precipitation 8.58 13.32  
Wind
Wind Speed 6 mph   
Max Wind Speed 13 mph   
Max Gust Speed 23 mph   
Visibility 3 miles   
Events Rain   

Key: T is trace of precipitation, MM is missing value
Source: NWS Daily Summary
Time(PST)TemperatureDew PointHumidity Pressure Visibility Wind DirectionWind SpeedGust SpeedPrecipitationEvents Conditions
12:53 AM 44.1°F 37.9°F 79% 30.05 in 5.0 miles WNW 8.1 mph - N/A   Haze
1:53 AM 44.1°F 37.0°F 76% 30.05 in 5.0 miles WNW 4.6 mph - N/A   Haze
2:53 AM 45.0°F 37.0°F 74% 30.06 in 5.0 miles West 6.9 mph - N/A   Haze
3:08 AM 44.6°F 37.4°F 76% 30.06 in 5.0 miles WNW 5.8 mph - N/A   Haze
3:20 AM 44.6°F 37.4°F 76% 30.06 in 5.0 miles NW 8.1 mph - N/A   Haze
3:53 AM 44.1°F 37.0°F 76% 30.07 in 5.0 miles NW 6.9 mph - N/A   Haze
4:53 AM 44.1°F 37.0°F 76% 30.07 in 5.0 miles West 5.8 mph - 0.00 in Rain Light Rain
5:19 AM 44.6°F 37.4°F 76% 30.07 in 2.0 miles WNW 4.6 mph - N/A Rain Light Rain
5:31 AM 44.6°F 37.4°F 76% 30.07 in 1.8 miles WNW 3.5 mph - 0.04 in Rain Rain
5:53 AM 44.1°F 37.9°F 79% 30.08 in 3.0 miles WNW 5.8 mph - 0.10 in Rain Light Rain
6:10 AM 42.8°F 37.4°F 81% 30.07 in 3.0 miles WNW 5.8 mph - 0.00 in Rain Light Rain
6:24 AM 42.8°F 37.4°F 81% 30.07 in 2.5 miles Calm Calm - 0.01 in Rain Light Rain
6:46 AM 42.8°F 39.2°F 87% 30.08 in 3.0 miles WNW 3.5 mph - 0.04 in Rain Light Rain
6:53 AM 43.0°F 37.9°F 82% 30.08 in 4.0 miles Calm Calm - 0.04 in Rain Light Rain
7:18 AM 42.8°F 39.2°F 87% 30.08 in 4.0 miles Calm Calm - N/A Rain Light Rain
7:45 AM 42.8°F 39.2°F 87% 30.08 in 2.0 miles Calm Calm - 0.02 in Rain Light Rain
7:53 AM 43.0°F 39.0°F 86% 30.09 in 2.5 miles Calm Calm - 0.03 in Rain Light Rain
8:28 AM 42.8°F 39.2°F 87% 30.07 in 1.5 miles Calm Calm - 0.04 in Rain Light Rain
8:39 AM 42.8°F 39.2°F 87% 30.07 in 2.0 miles Calm Calm - 0.04 in Rain Light Rain
8:53 AM 43.0°F 39.0°F 86% 30.08 in 2.0 miles WSW 3.5 mph - 0.05 in Rain Light Rain
9:10 AM 44.6°F 39.2°F 81% 30.07 in 3.0 miles West 3.5 mph - 0.00 in Rain Light Rain
9:21 AM 44.6°F 39.2°F 81% 30.07 in 2.5 miles West 3.5 mph - 0.00 in Rain Light Rain
9:44 AM 44.6°F 39.2°F 81% 30.07 in 3.0 miles WSW 6.9 mph - 0.01 in Rain Light Rain
9:53 AM 44.1°F 39.9°F 85% 30.08 in 2.5 miles WSW 5.8 mph - 0.02 in Rain Light Rain
10:06 AM 44.6°F 39.2°F 81% 30.07 in 1.8 miles WSW 3.5 mph - 0.00 in Rain Light Rain
10:37 AM 44.6°F 39.2°F 81% 30.07 in 1.2 miles WSW 5.8 mph - 0.03 in Rain Light Rain
10:45 AM 44.6°F 41.0°F 87% 30.07 in 1.8 miles WSW 3.5 mph - 0.04 in Rain Light Rain
10:53 AM 45.0°F 41.0°F 86% 30.08 in 1.5 miles SW 3.5 mph - 0.04 in Rain Light Rain
11:02 AM 44.6°F 41.0°F 87% 30.08 in 1.2 miles SW 4.6 mph - 0.02 in Rain Light Rain
11:13 AM 44.6°F 41.0°F 87% 30.08 in 1.5 miles SW 4.6 mph - 0.02 in Rain Light Rain
11:22 AM 44.6°F 41.0°F 87% 30.08 in 1.8 miles WSW 5.8 mph - 0.03 in Rain Light Rain
11:26 AM 44.6°F 41.0°F 87% 30.08 in 2.0 miles WSW 6.9 mph - 0.03 in Rain Light Rain
11:35 AM 44.6°F 41.0°F 87% 30.08 in 2.0 miles WSW 6.9 mph - 0.03 in Rain Light Rain
11:38 AM 44.6°F 41.0°F 87% 30.08 in 1.8 miles WSW 5.8 mph - 0.04 in Rain Light Rain
11:42 AM 44.6°F 41.0°F 87% 30.08 in 1.2 miles WSW 10.4 mph 19.6 mph 0.04 in Rain Light Rain
11:49 AM 44.6°F 41.0°F 87% 30.08 in 2.0 miles West 9.2 mph 19.6 mph 0.05 in Rain Light Rain
11:53 AM 45.0°F 41.0°F 86% 30.08 in 2.0 miles West 9.2 mph - 0.05 in Rain Light Rain
12:01 PM 44.6°F 41.0°F 87% 30.07 in 1.5 miles West 11.5 mph 17.3 mph 0.00 in Rain Light Rain
12:11 PM 44.6°F 39.2°F 81% 30.08 in 2.0 miles West 9.2 mph - 0.01 in Rain Light Rain
12:19 PM 44.6°F 41.0°F 87% 30.07 in 1.2 miles West 8.1 mph - 0.02 in Rain Light Rain
12:25 PM 44.6°F 39.2°F 81% 30.07 in 1.5 miles West 12.7 mph - 0.02 in Rain Light Rain
12:34 PM 44.6°F 39.2°F 81% 30.07 in 2.0 miles West 9.2 mph - 0.03 in Rain Light Rain
12:53 PM 45.0°F 39.9°F 82% 30.07 in 2.0 miles West 8.1 mph - 0.03 in Rain Light Rain
12:57 PM 44.6°F 39.2°F 81% 30.07 in 1.5 miles West 5.8 mph - 0.01 in Rain Light Rain
1:00 PM 44.6°F 41.0°F 87% 30.07 in 1.2 miles West 5.8 mph - 0.01 in Rain Light Rain
1:08 PM 44.6°F 41.0°F 87% 30.07 in 1.2 miles WNW 5.8 mph - 0.02 in Rain Light Rain
1:16 PM 44.6°F 41.0°F 87% 30.07 in 1.8 miles West 6.9 mph - 0.03 in Rain Light Rain
1:33 PM 44.6°F 41.0°F 87% 30.06 in 2.0 miles West 9.2 mph - 0.04 in Rain Light Rain
1:53 PM 45.0°F 39.9°F 82% 30.06 in 1.5 miles West 8.1 mph - 0.05 in Rain Light Rain
2:05 PM 44.6°F 39.2°F 81% 30.06 in 3.0 miles WNW 5.8 mph - 0.01 in Rain Light Rain
2:12 PM 44.6°F 39.2°F 81% 30.06 in 2.5 miles WNW 5.8 mph - 0.01 in Rain Light Rain
2:28 PM 44.6°F 39.2°F 81% 30.06 in 1.8 miles West 9.2 mph - 0.02 in Rain Light Rain
2:35 PM 44.6°F 39.2°F 81% 30.06 in 2.5 miles West 5.8 mph - 0.02 in Rain Light Rain
2:39 PM 44.6°F 39.2°F 81% 30.06 in 1.8 miles West 5.8 mph - 0.03 in Rain Light Rain
2:51 PM 44.6°F 39.2°F 81% 30.06 in 2.0 miles WNW 5.8 mph - 0.04 in Rain Light Rain
2:53 PM 45.0°F 39.9°F 82% 30.07 in 2.5 miles WNW 6.9 mph - 0.04 in Rain Light Rain
3:08 PM 44.6°F 39.2°F 81% 30.07 in 1.2 miles West 6.9 mph - 0.01 in Rain Light Rain
3:16 PM 44.6°F 39.2°F 81% 30.07 in 1.0 miles WNW 4.6 mph - 0.03 in Rain Light Rain
3:25 PM 44.6°F 39.2°F 81% 30.07 in 1.5 miles NW 6.9 mph 17.3 mph 0.04 in Rain Light Rain
3:28 PM 44.6°F 39.2°F 81% 30.07 in 1.2 miles NW 9.2 mph - 0.04 in Rain Light Rain
3:31 PM 44.6°F 39.2°F 81% 30.06 in 1.5 miles NW 5.8 mph - 0.05 in Rain Light Rain
3:53 PM 45.0°F 39.9°F 82% 30.07 in 2.0 miles WNW 8.1 mph - 0.06 in Rain Light Rain
3:55 PM 44.6°F 39.2°F 81% 30.06 in 2.0 miles WNW 6.9 mph - 0.00 in Rain Light Rain
4:09 PM 44.6°F 39.2°F 81% 30.07 in 3.0 miles West 9.2 mph - 0.01 in Rain Light Rain
4:11 PM 44.6°F 39.2°F 81% 30.06 in 2.5 miles West 11.5 mph 16.1 mph 0.01 in Rain Light Rain
4:23 PM 44.6°F 39.2°F 81% 30.06 in 3.0 miles West 9.2 mph - 0.01 in Rain Light Rain
4:33 PM 44.6°F 39.2°F 81% 30.06 in 2.5 miles West 6.9 mph 16.1 mph 0.02 in Rain Light Rain
4:45 PM 44.6°F 39.2°F 81% 30.06 in 1.8 miles WNW 8.1 mph 18.4 mph 0.03 in Rain Light Rain
4:53 PM 45.0°F 39.9°F 82% 30.07 in 2.0 miles WNW 6.9 mph - 0.03 in Rain Light Rain
5:03 PM 44.6°F 39.2°F 81% 30.07 in 2.0 miles WNW 5.8 mph - 0.01 in Rain Light Rain
5:13 PM 44.6°F 39.2°F 81% 30.08 in 4.0 miles WNW 9.2 mph - 0.01 in Rain Light Rain
5:36 PM 44.6°F 39.2°F 81% 30.08 in 4.0 miles WNW 5.8 mph - 0.02 in Rain Light Rain
5:53 PM 45.0°F 39.9°F 82% 30.08 in 5.0 miles WNW 6.9 mph - 0.02 in Rain Light Rain
6:01 PM 44.6°F 39.2°F 81% 30.08 in 4.0 miles Variable 6.9 mph - 0.00 in Rain Light Rain
6:36 PM 44.6°F 39.2°F 81% 30.08 in 4.0 miles WNW 9.2 mph - 0.01 in Rain Light Rain
6:53 PM 45.0°F 39.9°F 82% 30.09 in 4.0 miles WNW 6.9 mph 17.3 mph 0.02 in Rain Light Rain
7:53 PM 45.0°F 39.9°F 82% 30.09 in 5.0 miles WNW 3.5 mph - 0.00 in   Haze
8:00 PM 44.6°F 41.0°F 87% 30.09 in 2.5 miles West 5.8 mph - 0.00 in Rain Light Rain
8:02 PM 44.6°F 41.0°F 87% 30.09 in 1.8 miles West 5.8 mph - 0.01 in Rain Rain
8:10 PM 44.6°F 41.0°F 87% 30.10 in 2.0 miles West 8.1 mph - 0.02 in Rain Light Rain
8:16 PM 44.6°F 41.0°F 87% 30.10 in 3.0 miles WNW 6.9 mph - 0.02 in Rain Light Rain
8:25 PM 44.6°F 41.0°F 87% 30.10 in 4.0 miles WNW 4.6 mph - 0.02 in Rain Light Rain
8:34 PM 44.6°F 41.0°F 87% 30.10 in 2.0 miles West 4.6 mph - 0.03 in Rain Light Rain
8:39 PM 44.6°F 41.0°F 87% 30.10 in 1.8 miles WNW 4.6 mph - 0.03 in Rain Light Rain
8:48 PM 44.6°F 41.0°F 87% 30.10 in 2.0 miles WNW 3.5 mph - 0.04 in Rain Light Rain
8:53 PM 45.0°F 41.0°F 86% 30.10 in 4.0 miles West 4.6 mph - 0.04 in Rain Light Rain
9:10 PM 44.6°F 41.0°F 87% 30.09 in 4.0 miles West 5.8 mph - 0.00 in Rain Light Rain
9:44 PM 44.6°F 41.0°F 87% 30.10 in 5.0 miles West 6.9 mph - 0.00 in   Overcast
9:53 PM 45.0°F 41.0°F 86% 30.11 in 5.0 miles WNW 5.8 mph - 0.00 in   Overcast
10:31 PM 46.4°F 41.0°F 81% 30.11 in 1.8 miles West 6.9 mph - 0.00 in Rain Light Rain
10:35 PM 46.4°F 42.8°F 87% 30.11 in 1.2 miles Variable 4.6 mph - 0.00 in Rain Light Rain
10:41 PM 46.4°F 42.8°F 87% 30.11 in 1.5 miles West 8.1 mph - 0.01 in Rain Light Rain
10:45 PM 46.4°F 41.0°F 81% 30.11 in 2.0 miles WNW 8.1 mph 16.1 mph 0.01 in Rain Light Rain
10:48 PM 46.4°F 41.0°F 81% 30.11 in 3.0 miles West 9.2 mph 16.1 mph 0.01 in   Haze
10:53 PM 46.0°F 41.0°F 83% 30.12 in 5.0 miles WNW 10.4 mph 17.3 mph 0.01 in   Haze
11:05 PM 46.4°F 41.0°F 81% 30.12 in 1.8 miles WNW 4.6 mph - 0.00 in Rain Light Rain
11:15 PM 46.4°F 42.8°F 87% 30.12 in 1.2 miles WNW 8.1 mph - 0.01 in Rain Light Rain
11:24 PM 46.4°F 42.8°F 87% 30.13 in 1.8 miles WNW 10.4 mph - 0.01 in Rain Light Rain
11:53 PM 46.0°F 42.1°F 86% 30.14 in 1.2 miles WNW 6.9 mph - 0.03 in Rain Light Rain
Moon Phase
Jan. 28 Feb. 03 Feb. 10 Feb. 17 Feb. 25
Sunrise:07:50 AM (PST) Moon Rise:07:26 PM (PST)1/28
Sunset:05:12 PM (PST) Moon Set:08:07 AM (PST)1/28

Copyright © 2014 The Weather Underground, Inc.